When you browse on this site, cookies collect data to enhance your experience and personalize the content and advertising you see.
Visit our Privacy Policy to learn more. By continuing to use the site, you agree to this use of cookies and data.
  • In Netherlands
  • List of Countries
  • For 7 days
  • Water Temperature
  • Satellite Maps
  • Weather Map
  • Weather Widgets
  • user-avatar
    Login

    Hourly Weather Abovyan

    Today, 25 May, Saturday

    Time Temperature Precipitation Wind Pressure Humidity
    00:00 +18°C° 0.4 mm 2 mps 672 mmHg 56%
    01:00 +18°C° 0.2 mm 2 mps 672 mmHg 56%
    02:00 +17°C° 0.2 mm 2 mps 672 mmHg 55%
    03:00 +17°C° 0 mm 3 mps 672 mmHg 58%
    04:00 +18°C° 0.3 mm 3 mps 672 mmHg 56%
    05:00 +18°C° 0.3 mm 2 mps 672 mmHg 55%
    06:00 +19°C° 0.3 mm 2 mps 672 mmHg 54%
    07:00 +21°C° 0.1 mm 2 mps 673 mmHg 49%
    08:00 +24°C° 0.1 mm 3 mps 673 mmHg 43%
    09:00 +26°C° 0.1 mm 3 mps 673 mmHg 38%
    10:00 +27°C° 0.1 mm 4 mps 673 mmHg 36%
    11:00 +28°C° 0.1 mm 4 mps 673 mmHg 34%
    12:00 +29°C° 0.1 mm 5 mps 673 mmHg 32%
    13:00 +29°C° 0.2 mm 5 mps 673 mmHg 32%
    14:00 +30°C° 0.2 mm 5 mps 672 mmHg 31%
    15:00 +30°C° 0.2 mm 5 mps 672 mmHg 30%
    16:00 +29°C° 0.1 mm 4 mps 672 mmHg 33%
    17:00 +28°C° 0.1 mm 4 mps 672 mmHg 36%
    18:00 +27°C° 0.1 mm 3 mps 671 mmHg 39%
    19:00 +25°C° 0.4 mm 3 mps 671 mmHg 43%
    20:00 +23°C° 0.4 mm 2 mps 671 mmHg 46%
    21:00 +20°C° 0.4 mm 2 mps 671 mmHg 50%
    22:00 +19°C° 0.2 mm 2 mps 671 mmHg 50%
    23:00 +19°C° 0.2 mm 2 mps 671 mmHg 51%

    Tomorrow, 26 May, Sunday

    Time Temperature Precipitation Wind Pressure Humidity
    00:00 +18°C° 0.2 mm 2 mps 671 mmHg 51%
    01:00 +18°C° 0 mm 2 mps 671 mmHg 52%
    02:00 +17°C° 0 mm 2 mps 671 mmHg 52%
    03:00 +17°C° 0 mm 2 mps 670 mmHg 52%
    04:00 +17°C° 0 mm 2 mps 671 mmHg 53%
    05:00 +18°C° 0 mm 2 mps 671 mmHg 53%
    06:00 +18°C° 0 mm 2 mps 671 mmHg 53%
    07:00 +20°C° 0 mm 2 mps 671 mmHg 47%
    08:00 +23°C° 0 mm 2 mps 671 mmHg 41%
    09:00 +24°C° 0 mm 2 mps 671 mmHg 35%
    10:00 +25°C° 0 mm 2 mps 671 mmHg 34%
    11:00 +26°C° 0 mm 3 mps 671 mmHg 33%
    12:00 +27°C° 0 mm 3 mps 671 mmHg 31%
    13:00 +28°C° 0 mm 3 mps 670 mmHg 31%
    14:00 +28°C° 0 mm 3 mps 670 mmHg 30%
    15:00 +29°C° 0 mm 3 mps 670 mmHg 29%
    16:00 +28°C° 0 mm 3 mps 670 mmHg 30%
    17:00 +27°C° 0 mm 2 mps 670 mmHg 32%
    18:00 +26°C° 0 mm 2 mps 670 mmHg 34%
    19:00 +24°C° 0.1 mm 3 mps 671 mmHg 39%
    20:00 +21°C° 0.1 mm 4 mps 671 mmHg 45%
    21:00 +19°C° 0.1 mm 5 mps 672 mmHg 50%
    22:00 +18°C° 0.3 mm 4 mps 672 mmHg 54%
    23:00 +17°C° 0.3 mm 4 mps 672 mmHg 58%

    Day after tomorrow, 27 May, Monday

    Time Temperature Precipitation Wind Pressure Humidity
    00:00 +16°C° 0.3 mm 3 mps 672 mmHg 61%
    01:00 +15°C° 0 mm 2 mps 672 mmHg 62%
    02:00 +14°C° 0 mm 2 mps 672 mmHg 62%
    03:00 +14°C° 0 mm 2 mps 672 mmHg 62%
    04:00 +15°C° 0 mm 2 mps 672 mmHg 60%
    05:00 +15°C° 0 mm 1 mps 672 mmHg 59%
    06:00 +16°C° 0 mm 1 mps 673 mmHg 57%
    07:00 +18°C° 0 mm 2 mps 673 mmHg 50%
    08:00 +19°C° 0 mm 2 mps 673 mmHg 43%
    09:00 +21°C° 0 mm 2 mps 674 mmHg 37%
    10:00 +23°C° 0 mm 2 mps 674 mmHg 34%
    11:00 +24°C° 0 mm 2 mps 674 mmHg 32%
    12:00 +25°C° 0 mm 2 mps 673 mmHg 29%
    13:00 +26°C° 0 mm 2 mps 673 mmHg 28%
    14:00 +26°C° 0 mm 2 mps 673 mmHg 28%
    15:00 +27°C° 0 mm 2 mps 673 mmHg 27%
    16:00 +26°C° 0.2 mm 2 mps 673 mmHg 30%
    17:00 +26°C° 0.2 mm 2 mps 673 mmHg 33%
    18:00 +25°C° 0.2 mm 1 mps 673 mmHg 36%
    19:00 +23°C° 0.3 mm 2 mps 673 mmHg 42%
    20:00 +20°C° 0.3 mm 2 mps 674 mmHg 48%
    21:00 +18°C° 0.3 mm 2 mps 674 mmHg 53%
    22:00 +17°C° 0.3 mm 3 mps 674 mmHg 56%
    23:00 +17°C° 0.3 mm 3 mps 674 mmHg 59%

    28 May, Tuesday

    Time Temperature Precipitation Wind Pressure Humidity
    00:00 +17°C° 0.3 mm 3 mps 674 mmHg 61%
    01:00 +16°C° 0.2 mm 3 mps 674 mmHg 63%
    02:00 +14°C° 0.2 mm 3 mps 674 mmHg 64%
    03:00 +15°C° 0.2 mm 2 mps 674 mmHg 66%
    04:00 +15°C° 0 mm 2 mps 674 mmHg 65%
    05:00 +16°C° 0 mm 2 mps 674 mmHg 64%
    06:00 +16°C° 0 mm 2 mps 675 mmHg 63%
    07:00 +18°C° 0 mm 2 mps 675 mmHg 57%
    08:00 +21°C° 0 mm 1 mps 675 mmHg 50%
    09:00 +22°C° 0 mm 1 mps 675 mmHg 44%
    10:00 +24°C° 0.1 mm 1 mps 675 mmHg 40%
    11:00 +25°C° 0.1 mm 2 mps 675 mmHg 37%
    12:00 +26°C° 0.1 mm 2 mps 675 mmHg 34%
    13:00 +26°C° 0.1 mm 2 mps 675 mmHg 33%
    14:00 +27°C° 0.1 mm 2 mps 675 mmHg 31%
    15:00 +27°C° 0.1 mm 1 mps 675 mmHg 30%
    16:00 +27°C° 0.3 mm 2 mps 675 mmHg 33%
    17:00 +26°C° 0.3 mm 2 mps 674 mmHg 36%
    18:00 +26°C° 0.3 mm 2 mps 674 mmHg 39%
    19:00 +24°C° 0.3 mm 2 mps 675 mmHg 45%
    20:00 +21°C° 0.3 mm 3 mps 675 mmHg 50%
    21:00 +19°C° 0.3 mm 3 mps 675 mmHg 56%
    22:00 +18°C° 0.2 mm 3 mps 675 mmHg 59%
    23:00 +18°C° 0.2 mm 3 mps 675 mmHg 62%

    29 May, Wednesday

    Time Temperature Precipitation Wind Pressure Humidity
    00:00 +17°C° 0.2 mm 3 mps 675 mmHg 65%
    01:00 +16°C° 0.1 mm 3 mps 674 mmHg 67%
    02:00 +16°C° 0.1 mm 3 mps 674 mmHg 69%
    03:00 +14°C° 0.1 mm 3 mps 674 mmHg 71%
    04:00 +16°C° 0 mm 3 mps 674 mmHg 70%
    05:00 +16°C° 0 mm 2 mps 674 mmHg 69%
    06:00 +17°C° 0 mm 2 mps 675 mmHg 67%
    07:00 +19°C° 0 mm 2 mps 675 mmHg 61%
    08:00 +21°C° 0 mm 1 mps 675 mmHg 54%
    09:00 +23°C° 0 mm 1 mps 675 mmHg 47%
    10:00 +24°C° 0.1 mm 1 mps 675 mmHg 43%
    11:00 +25°C° 0.1 mm 1 mps 675 mmHg 40%
    12:00 +27°C° 0.1 mm 2 mps 675 mmHg 36%
    13:00 +27°C° 0.3 mm 1 mps 675 mmHg 35%
    14:00 +27°C° 0.3 mm 1 mps 674 mmHg 34%
    15:00 +28°C° 0.3 mm 1 mps 674 mmHg 34%
    16:00 +27°C° 0.3 mm 2 mps 674 mmHg 37%
    17:00 +26°C° 0.3 mm 2 mps 674 mmHg 41%
    18:00 +26°C° 0.3 mm 3 mps 674 mmHg 44%
    19:00 +24°C° 0.2 mm 3 mps 674 mmHg 51%
    20:00 +21°C° 0.2 mm 3 mps 674 mmHg 58%
    21:00 +18°C° 0.2 mm 3 mps 674 mmHg 65%
    22:00 +18°C° 0 mm 3 mps 674 mmHg 66%
    23:00 +17°C° 0 mm 3 mps 674 mmHg 67%

    30 May, Thursday

    Time Temperature Precipitation Wind Pressure Humidity
    00:00 +17°C° 0 mm 3 mps 674 mmHg 68%
    01:00 +16°C° 0 mm 3 mps 674 mmHg 68%
    02:00 +16°C° 0 mm 3 mps 674 mmHg 68%
    03:00 +14°C° 0 mm 3 mps 674 mmHg 68%
    04:00 +16°C° 0 mm 3 mps 674 mmHg 67%
    05:00 +17°C° 0 mm 2 mps 674 mmHg 65%
    06:00 +17°C° 0 mm 2 mps 674 mmHg 64%
    07:00 +19°C° 0 mm 2 mps 674 mmHg 56%
    08:00 +22°C° 0 mm 1 mps 674 mmHg 48%
    09:00 +24°C° 0 mm 1 mps 675 mmHg 40%
    10:00 +25°C° 0 mm 1 mps 674 mmHg 37%
    11:00 +26°C° 0 mm 1 mps 674 mmHg 34%
    12:00 +27°C° 0 mm 1 mps 674 mmHg 31%
    13:00 +28°C° 0.3 mm 2 mps 674 mmHg 31%
    14:00 +28°C° 0.3 mm 2 mps 674 mmHg 31%
    15:00 +29°C° 0.3 mm 2 mps 673 mmHg 31%
    16:00 +28°C° 0.3 mm 2 mps 673 mmHg 34%
    17:00 +27°C° 0.3 mm 2 mps 673 mmHg 37%
    18:00 +27°C° 0.3 mm 2 mps 673 mmHg 41%
    19:00 +24°C° 0 mm 2 mps 674 mmHg 47%
    20:00 +21°C° 0 mm 3 mps 674 mmHg 53%
    21:00 +19°C° 0 mm 3 mps 674 mmHg 60%
    22:00 +18°C° 0 mm 3 mps 674 mmHg 60%
    23:00 +18°C° 0 mm 3 mps 674 mmHg 60%
    Show more